Location: Capvern
(43.1036°N, 0.3160°E)
Time: 06:54:10
(UTC+00:00)

Cosmos 489 Rocket - Pass Details

Date: 06 June 2022
Orbit: 952 x 983 km, 74.0° (Epoch: 03 July)

Event Time Altitude Azimuth Distance (km) Brightness Sun altitude
Rises 02:25:55 0° 335° (NNW) 3,652 7.9 -15.9°
Reaches altitude 10° 02:28:29 10° 332° (NNW) 2,706 7.2 -15.6°
Maximum altitude 02:34:34 56° 256° (WSW) 1,146 4.6 -15.0°
Enters shadow 02:40:17 12° 181° (S) 2,571 6.2 -14.3°
